Skip Page Navigation
NASA JPL Caltech
NASA Logo - Jet Propulsion Laboratory + View the NASA Portal
+ Center for Near-Earth Object Studies
JPL Home Earth Solar System Stars & Galaxies Technology
JPL Solar System Dynamics
BODIES ORBITS EPHEMERIDES TOOLS PHYSICAL DATA DISCOVERY FAQ SITE MAP
IMPORTANT: The SSD Announcement email list is now available. Major changes are coming in the near future, including possible hostname and/or URL changes. To be notified of such changes, subscribe to this email list.

Please visit this page for more details.


JPL Small-Body Database Browser
Search: [ help ]  
344469 (2002 OA37)
Classification: Main-belt Asteroid          SPK-ID: 2344469
Ephemeris | Orbit Diagram | Orbital Elements | Mission Design | Physical Parameters | Discovery Circumstances | Close-Approach Data ]

[ show orbit diagram ]
Orbital Elements at Epoch 2458600.5 (2019-Apr-27.0) TDB
Reference: JPL 13 (heliocentric ecliptic J2000)
 Element Value Uncertainty (1-sigma)   Units 
e .1189146687634739 7.297e-08  
a 2.931225164213237 2.9756e-08 au
q 2.58265949473966 2.1149e-07 au
i .6323531303984953 7.9393e-06 deg
node 328.7472502154292 0.00051644 deg
peri 350.0573369522527 0.00051695 deg
M 115.6192377959833 2.2774e-05 deg
tp 2458011.792188199838
(2017-Sep-15.29218820)
0.00011635 TDB
period 1833.041077662432
5.02
2.7912e-05
7.642e-08
d
yr
n .1963949441106287 2.9905e-09 deg/d
Q 3.279790833686813 3.3295e-08 au
  Orbit Determination Parameters
   # obs. used (total)      145  
   data-arc span      6887 days (18.86 yr)  
   first obs. used      2000-02-04  
   last obs. used      2018-12-13  
   planetary ephem.      DE431  
   SB-pert. ephem.      SB431-N16  
   condition code      0  
   norm. resid. RMS      .64738  
   source      ORB  
   producer      Otto Matic  
   solution date      2019-Jul-14 13:21:52  

Additional Information
 Earth MOID = 1.56864 au 
 Jupiter MOID = 1.99351 au 
 T_jup = 3.266 
[ show covariance matrix ]

Ephemeris | Orbit Diagram | Orbital Elements | Mission Design | Physical Parameters | Discovery Circumstances | Close-Approach Data ]

Physical Parameter Table
Parameter Symbol Value Units Sigma Reference Notes
absolute magnitude H 16.8   n/a MPO423288  

344469 (2002 OA37)          Discovered 2008-Oct-27 by Spacewatch at Kitt Peak
Reference: 20121128/Numbers.arcLast Updated: 2012-12-03

[ show close-approach data ]
Alternate Designations
 2002 OA37 = 2000 CT132 = 2008 WZ88 = 2010 CD64 = 2011 HN97 
Ephemeris | Orbit Diagram | Orbital Elements | Mission Design | Physical Parameters | Discovery Circumstances | Close-Approach Data ]
ABOUT SSD CREDITS/AWARDS PRIVACY/COPYRIGHT GLOSSARY LINKS
FirstGov 2019-Dec-14 16:02 UT
(server date/time)  
NASA Home Page
Site Manager:   Ryan S. Park
Webmaster  Alan B. Chamberlin